Location: Middlebury
(44.0133°N, 73.1813°W)
Time: 03:58:36
(UTC-04:00)

Envisat - Pass Details

Date: 05 February 2022
Orbit: 764 x 765 km, 98.2° (Epoch: 21 May)

Event Time Altitude Azimuth Distance (km) Brightness Sun altitude
Rises 06:25:27 0° 356° (N) 3,242 6.0 -7.7°
Reaches altitude 10° 06:28:48 10° 333° (NNW) 2,311 5.1 -7.1°
Maximum altitude 06:31:25 14° 301° (WNW) 2,019 4.6 -6.6°
Drops below altitude 10° 06:34:02 10° 270° (W) 2,304 4.9 -6.2°
Sets 06:37:23 0° 246° (WSW) 3,226 5.8 -5.6°
